When you browse on this site, cookies collect data to enhance your experience and personalize the content and advertising you see.
Visit our Privacy Policy to learn more. By continuing to use the site, you agree to this use of cookies and data.
  • en Suisse
  • Liste des pays
  • À 7 jours
  • Température de l'eau
  • Carte satellitaire
  • Carte météo
  • Widgets météo
  • user-avatar
    Se connecter

    Météo par heure à Sidi-bel-Abbès

    Ce jour, 26 Juin, Mercredi

    Heure Température Précipitation Vent Pression Humidité
    00:00 +23°C° 0 mm 1 m/s 720 mmHg 79%
    01:00 +22°C° 0 mm 1 m/s 720 mmHg 84%
    02:00 +21°C° 0 mm 1 m/s 720 mmHg 88%
    03:00 +21°C° 0 mm 1 m/s 719 mmHg 93%
    04:00 +21°C° 0 mm 1 m/s 720 mmHg 90%
    05:00 +21°C° 0 mm 1 m/s 720 mmHg 87%
    06:00 +22°C° 0 mm 1 m/s 720 mmHg 83%
    07:00 +25°C° 0 mm 2 m/s 721 mmHg 68%
    08:00 +28°C° 0 mm 3 m/s 721 mmHg 53%
    09:00 +33°C° 0 mm 3 m/s 722 mmHg 37%
    10:00 +34°C° 0 mm 4 m/s 722 mmHg 35%
    11:00 +35°C° 0 mm 4 m/s 722 mmHg 33%
    12:00 +36°C° 0 mm 5 m/s 722 mmHg 30%
    13:00 +36°C° 0 mm 5 m/s 721 mmHg 32%
    14:00 +36°C° 0 mm 5 m/s 721 mmHg 34%
    15:00 +36°C° 0 mm 6 m/s 720 mmHg 36%
    16:00 +35°C° 0 mm 5 m/s 720 mmHg 38%
    17:00 +33°C° 0 mm 4 m/s 720 mmHg 41%
    18:00 +32°C° 0 mm 4 m/s 720 mmHg 44%
    19:00 +29°C° 0 mm 3 m/s 720 mmHg 49%
    20:00 +28°C° 0 mm 2 m/s 720 mmHg 55%
    21:00 +26°C° 0 mm 1 m/s 720 mmHg 61%
    22:00 +25°C° 0 mm 1 m/s 720 mmHg 66%
    23:00 +24°C° 0 mm 2 m/s 720 mmHg 72%

    Demain, 27 Juin, Jeudi

    Heure Température Précipitation Vent Pression Humidité
    00:00 +23°C° 0 mm 2 m/s 720 mmHg 77%
    01:00 +21°C° 0 mm 2 m/s 719 mmHg 82%
    02:00 +21°C° 0 mm 2 m/s 719 mmHg 86%
    03:00 +20°C° 0 mm 2 m/s 719 mmHg 90%
    04:00 +21°C° 0 mm 2 m/s 719 mmHg 87%
    05:00 +22°C° 0 mm 1 m/s 720 mmHg 84%
    06:00 +22°C° 0 mm 1 m/s 720 mmHg 81%
    07:00 +25°C° 0 mm 1 m/s 720 mmHg 66%
    08:00 +29°C° 0 mm 1 m/s 721 mmHg 52%
    09:00 +32°C° 0 mm 2 m/s 721 mmHg 37%
    10:00 +35°C° 0 mm 3 m/s 721 mmHg 33%
    11:00 +37°C° 0 mm 3 m/s 721 mmHg 29%
    12:00 +40°C° 0 mm 4 m/s 721 mmHg 25%
    13:00 +39°C° 0 mm 5 m/s 721 mmHg 27%
    14:00 +39°C° 0 mm 6 m/s 720 mmHg 28%
    15:00 +39°C° 0 mm 6 m/s 720 mmHg 29%
    16:00 +36°C° 0 mm 6 m/s 720 mmHg 34%
    17:00 +35°C° 0 mm 5 m/s 719 mmHg 38%
    18:00 +33°C° 0 mm 4 m/s 719 mmHg 43%
    19:00 +29°C° 0 mm 4 m/s 719 mmHg 54%
    20:00 +27°C° 0 mm 3 m/s 719 mmHg 65%
    21:00 +25°C° 0 mm 2 m/s 720 mmHg 76%
    22:00 +24°C° 0 mm 2 m/s 719 mmHg 80%
    23:00 +23°C° 0 mm 2 m/s 719 mmHg 83%

    Après-demain, 28 Juin, Vendredi

    Heure Température Précipitation Vent Pression Humidité
    00:00 +23°C° 0 mm 2 m/s 719 mmHg 87%
    01:00 +22°C° 0 mm 1 m/s 719 mmHg 89%
    02:00 +22°C° 0 mm 1 m/s 719 mmHg 90%
    03:00 +22°C° 0 mm 1 m/s 719 mmHg 92%
    04:00 +22°C° 0 mm 1 m/s 719 mmHg 88%
    05:00 +22°C° 0 mm 1 m/s 719 mmHg 85%
    06:00 +23°C° 0 mm 1 m/s 719 mmHg 82%
    07:00 +25°C° 0 mm 1 m/s 719 mmHg 69%
    08:00 +28°C° 0 mm 1 m/s 720 mmHg 56%
    09:00 +31°C° 0 mm 2 m/s 720 mmHg 43%
    10:00 +34°C° 0 mm 2 m/s 720 mmHg 37%
    11:00 +36°C° 0 mm 3 m/s 720 mmHg 31%
    12:00 +38°C° 0 mm 4 m/s 720 mmHg 25%
    13:00 +40°C° 0 mm 5 m/s 720 mmHg 24%
    14:00 +40°C° 0 mm 6 m/s 719 mmHg 24%
    15:00 +40°C° 0 mm 6 m/s 719 mmHg 24%
    16:00 +39°C° 0 mm 6 m/s 719 mmHg 25%
    17:00 +36°C° 0 mm 5 m/s 719 mmHg 27%
    18:00 +35°C° 0 mm 4 m/s 718 mmHg 28%
    19:00 +33°C° 0 mm 3 m/s 719 mmHg 34%
    20:00 +29°C° 0 mm 2 m/s 719 mmHg 41%
    21:00 +25°C° 0 mm 0 m/s 719 mmHg 47%
    22:00 +24°C° 0 mm 0 m/s 719 mmHg 46%
    23:00 +26°C° 0 mm 1 m/s 718 mmHg 46%

    29 Juin, Samedi

    Heure Température Précipitation Vent Pression Humidité
    00:00 +26°C° 0 mm 1 m/s 718 mmHg 45%
    01:00 +25°C° 0 mm 1 m/s 718 mmHg 47%
    02:00 +25°C° 0 mm 1 m/s 718 mmHg 50%
    03:00 +24°C° 0 mm 1 m/s 717 mmHg 52%
    04:00 +24°C° 0 mm 1 m/s 718 mmHg 55%
    05:00 +24°C° 0 mm 1 m/s 718 mmHg 57%
    06:00 +25°C° 0 mm 1 m/s 718 mmHg 60%
    07:00 +27°C° 0 mm 1 m/s 719 mmHg 51%
    08:00 +29°C° 0 mm 1 m/s 719 mmHg 43%
    09:00 +32°C° 0 mm 1 m/s 720 mmHg 34%
    10:00 +35°C° 0 mm 2 m/s 720 mmHg 29%
    11:00 +37°C° 0 mm 3 m/s 720 mmHg 24%
    12:00 +39°C° 0 mm 3 m/s 720 mmHg 19%
    13:00 +41°C° 0 mm 4 m/s 719 mmHg 18%
    14:00 +41°C° 0 mm 5 m/s 719 mmHg 17%
    15:00 +42°C° 0 mm 6 m/s 719 mmHg 17%
    16:00 +41°C° 0 mm 5 m/s 719 mmHg 17%
    17:00 +39°C° 0 mm 5 m/s 719 mmHg 17%
    18:00 +37°C° 0 mm 4 m/s 719 mmHg 17%
    19:00 +35°C° 0 mm 3 m/s 719 mmHg 21%
    20:00 +33°C° 0 mm 3 m/s 719 mmHg 24%
    21:00 +30°C° 0 mm 2 m/s 719 mmHg 28%
    22:00 +29°C° 0 mm 2 m/s 719 mmHg 30%
    23:00 +27°C° 0 mm 1 m/s 719 mmHg 32%

    30 Juin, Dimanche

    Heure Température Précipitation Vent Pression Humidité
    00:00 +24°C° 0 mm 0 m/s 719 mmHg 34%
    01:00 +26°C° 0 mm 1 m/s 718 mmHg 38%
    02:00 +25°C° 0 mm 1 m/s 718 mmHg 43%
    03:00 +24°C° 0 mm 1 m/s 718 mmHg 48%
    04:00 +24°C° 0 mm 1 m/s 718 mmHg 50%
    05:00 +25°C° 0 mm 1 m/s 719 mmHg 51%
    06:00 +25°C° 0 mm 1 m/s 719 mmHg 53%
    07:00 +28°C° 0 mm 1 m/s 720 mmHg 45%
    08:00 +30°C° 0 mm 1 m/s 720 mmHg 36%
    09:00 +33°C° 0 mm 1 m/s 721 mmHg 27%
    10:00 +36°C° 0 mm 2 m/s 721 mmHg 24%
    11:00 +38°C° 0 mm 3 m/s 721 mmHg 21%
    12:00 +40°C° 0 mm 4 m/s 721 mmHg 18%
    13:00 +40°C° 0 mm 5 m/s 721 mmHg 21%
    14:00 +40°C° 0 mm 5 m/s 721 mmHg 24%
    15:00 +39°C° 0 mm 6 m/s 720 mmHg 28%
    16:00 +36°C° 0 mm 5 m/s 720 mmHg 33%
    17:00 +34°C° 0 mm 5 m/s 720 mmHg 39%
    18:00 +32°C° 0 mm 4 m/s 720 mmHg 45%
    19:00 +29°C° 0 mm 3 m/s 720 mmHg 51%
    20:00 +27°C° 0 mm 1 m/s 720 mmHg 58%
    21:00 +24°C° 0 mm 0 m/s 721 mmHg 64%
    22:00 +23°C° 0 mm 0 m/s 721 mmHg 64%
    23:00 +23°C° 0 mm 0 m/s 720 mmHg 64%

    1 Juillet, Lundi

    Heure Température Précipitation Vent Pression Humidité
    00:00 +22°C° 0 mm 0 m/s 720 mmHg 64%
    01:00 +24°C° 0 mm 1 m/s 720 mmHg 67%
    02:00 +23°C° 0 mm 1 m/s 720 mmHg 70%
    03:00 +23°C° 0 mm 2 m/s 720 mmHg 73%
    04:00 +23°C° 0 mm 2 m/s 720 mmHg 71%
    05:00 +24°C° 0 mm 2 m/s 720 mmHg 70%
    06:00 +24°C° 0 mm 1 m/s 720 mmHg 69%
    07:00 +26°C° 0 mm 2 m/s 721 mmHg 60%
    08:00 +28°C° 0 mm 2 m/s 721 mmHg 51%
    09:00 +30°C° 0 mm 2 m/s 721 mmHg 42%
    10:00 +33°C° 0 mm 3 m/s 721 mmHg 37%
    11:00 +35°C° 0 mm 3 m/s 721 mmHg 32%
    12:00 +37°C° 0 mm 4 m/s 722 mmHg 26%
    13:00 +37°C° 0 mm 4 m/s 721 mmHg 26%
    14:00 +37°C° 0 mm 4 m/s 721 mmHg 25%
    15:00 +38°C° 0 mm 4 m/s 720 mmHg 25%
    16:00 +36°C° 0 mm 4 m/s 720 mmHg 28%
    17:00 +35°C° 0 mm 3 m/s 720 mmHg 32%
    18:00 +34°C° 0 mm 3 m/s 720 mmHg 35%
    19:00 +31°C° 0 mm 2 m/s 720 mmHg 42%
    20:00 +28°C° 0 mm 1 m/s 720 mmHg 49%
    21:00 +26°C° 0 mm 1 m/s 720 mmHg 57%
    22:00 +26°C° 0 mm 1 m/s 720 mmHg 56%
    23:00 +24°C° 0 mm 0 m/s 720 mmHg 55%
    Voir plus